CW4167 Weather Reports


time (UTC)temp
C
wind
direction
speed
KPH
gust
KPH
rain 1hr
cm
rain 24hr
cm
rain mn
cm
humidity
%
barometer
mb
20260906181705 15 177 3.2 4.8 0.00 0.00 0.00 75 1020.7
20260906181206 15 179 1.6 4.8 0.00 0.00 0.00 75 1020.7
20260906180705 15 167 3.2 3.2 0.00 0.00 0.00 74 1020.6
20260906172205 16 255 4.8 11.3 0.00 0.00 0.00 70 1020.6
20260906171205 16 265 6.4 11.3 0.00 0.00 0.00 70 1020.7
20260906170205 16 260 4.8 11.3 0.00 0.00 0.00 69 1020.7
20260906165705 16 244 4.8 9.7 0.00 0.00 0.00 69 1020.7
20260906165207 16 274 6.4 12.9 0.00 0.00 0.00 69 1020.7
20260906164207 17 257 8.0 12.9 0.00 0.00 0.00 68 1020.7
20260906163206 17 242 4.8 11.3 0.00 0.00 0.00 67 1020.7
20260906162705 17 247 8.0 11.3 0.00 0.00 0.00 66 1020.7
20260906162205 17 271 9.7 14.5 0.00 0.00 0.00 66 1020.7
20260906155205 17 259 12.9 25.7 0.00 0.00 0.00 65 1020.7
20260906154707 17 277 14.5 24.1 0.00 0.00 0.00 65 1020.7
20260906154206 18 284 14.5 25.7 0.00 0.00 0.00 64 1020.7
20260906151707 19 296 12.9 20.9 0.00 0.00 0.00 63 1020.6
20260906145705 19 272 16.1 27.4 0.00 0.00 0.00 60 1020.4
20260906145205 19 250 20.9 27.4 0.00 0.00 0.00 60 1020.4
20260906144705 19 305 25.7 40.2 0.00 0.00 0.00 59 1020.5
20260906143207 18 289 20.9 35.4 0.00 0.00 0.00 60 1020.6
20260906142706 18 288 32.2 38.6 0.00 0.00 0.00 60 1020.6
20260906142206 19 281 22.5 35.4 0.00 0.00 0.00 60 1020.6
20260906141205 19 284 22.5 29.0 0.00 0.00 0.00 60 1020.6
20260906140205 18 288 20.9 37.0 0.00 0.00 0.00 60 1020.6
20260906135205 19 262 25.7 40.2 0.00 0.00 0.00 59 1020.6
20260906134705 19 261 24.1 33.8 0.00 0.00 0.00 61 1020.5
20260906134206 18 292 19.3 27.4 0.00 0.00 0.00 62 1020.5
20260906133207 18 297 20.9 32.2 0.00 0.00 0.00 61 1020.5
20260906132707 18 307 20.9 32.2 0.00 0.00 0.00 62 1020.5
20260906131705 18 286 20.9 29.0 0.00 0.00 0.00 62 1020.5
20260906130705 18 271 20.9 32.2 0.00 0.00 0.00 62 1020.6
20260906125204 18 291 16.1 37.0 0.00 0.00 0.00 64 1020.6
20260906124705 18 286 19.3 33.8 0.00 0.00 0.00 63 1020.6
20260906124205 18 284 14.5 32.2 0.00 0.00 0.00 63 1020.7
20260906123706 18 292 27.4 35.4 0.00 0.00 0.00 62 1020.7
20260906123205 18 291 32.2 41.8 0.00 0.00 0.00 61 1020.7
20260906122705 18 287 25.7 38.6 0.00 0.00 0.00 62 1020.6
20260906122207 18 284 25.7 41.8 0.00 0.00 0.00 62 1020.6
20260906121705 18 265 25.7 37.0 0.00 0.00 0.00 62 1020.7
20260906120207 18 274 20.9 32.2 0.00 0.00 0.00 63 1020.7
20260906115707 18 287 29.0 35.4 0.00 0.00 0.00 62 1020.6
20260906114707 18 245 25.7 35.4 0.00 0.00 0.00 61 1020.6
20260906113706 18 267 19.3 35.4 0.00 0.00 0.00 63 1020.6
20260906113208 18 276 25.7 37.0 0.00 0.00 0.00 65 1020.4
20260906112706 17 298 20.9 40.2 0.00 0.00 0.00 65 1020.5
20260906111707 17 267 22.5 38.6 0.00 0.00 0.00 66 1020.5
20260906111207 17 303 24.1 38.6 0.00 0.00 0.00 67 1020.4
20260906104207 17 296 30.6 40.2 0.00 0.00 0.00 67 1020.1
20260906102707 17 283 27.4 35.4 0.00 0.00 0.00 68 1020.0
20260906101706 17 295 29.0 40.2 0.00 0.00 0.00 70 1019.7
20260906100207 17 280 25.7 32.2 0.00 0.00 0.00 71 1019.7
20260906094207 17 274 17.7 35.4 0.00 0.00 0.00 71 1019.6
20260906093207 16 276 22.5 38.6 0.00 0.00 0.00 71 1019.2
20260906090707 16 277 25.7 37.0 0.00 0.00 0.00 70 1019.1
20260906085707 16 285 25.7 45.1 0.00 0.00 0.00 71 1019.1
20260906084706 16 286 27.4 46.7 0.00 0.00 0.00 71 1019.2
20260906084207 16 288 27.4 51.5 0.00 0.00 0.00 72 1019.1
20260906082707 16 294 22.5 35.4 0.00 0.00 0.00 73 1019.0
20260906081706 16 287 29.0 40.2 0.00 0.00 0.00 73 1018.9
20260906081207 16 293 27.4 40.2 0.00 0.00 0.00 74 1018.9
20260906080706 16 298 33.8 45.1 0.00 0.00 0.00 72 1018.8
20260906075207 16 291 29.0 41.8 0.00 0.00 0.00 74 1018.6
20260906074708 16 297 35.4 41.8 0.00 0.00 0.00 74 1018.4
20260906074209 16 298 38.6 53.1 0.00 0.00 0.00 74 1018.4
20260906073706 16 278 27.4 40.2 0.00 0.00 0.00 75 1018.4
20260906073206 15 292 29.0 41.8 0.00 0.00 0.00 75 1018.4
20260906072706 15 289 25.7 38.6 0.00 0.00 0.00 76 1018.3
20260906065709 15 289 22.5 32.2 0.00 0.00 0.00 78 1018.3
20260906064206 15 266 20.9 33.8 0.00 0.00 0.00 79 1017.9
20260906063206 14 275 24.1 38.6 0.00 0.00 0.00 80 1017.9
20260906062706 14 284 16.1 35.4 0.00 0.00 0.00 81 1017.8
20260906061707 14 281 20.9 33.8 0.00 0.00 0.00 81 1017.8
20260906060707 13 283 19.3 33.8 0.00 0.00 0.00 82 1017.6
20260906053706 13 293 14.5 25.7 0.00 0.00 0.00 83 1017.3
20260906051212 13 286 16.1 27.4 0.00 0.00 0.00 84 1017.1
20260906045706 13 275 11.3 29.0 0.00 0.00 0.00 83 1016.9
20260906045208 13 276 22.5 32.2 0.00 0.00 0.00 83 1016.8
20260906043706 13 276 19.3 32.2 0.00 0.03 0.00 83 1016.5
20260906043206 13 280 20.9 27.4 0.00 0.03 0.00 83 1016.5
20260906041708 13 289 19.3 25.7 0.00 0.03 0.00 83 1016.2
20260906041206 13 275 22.5 33.8 0.00 0.03 0.00 83 1016.2
20260906040706 13 296 20.9 33.8 0.00 0.03 0.00 83 1016.2
20260906040208 12 278 20.9 29.0 0.00 0.03 0.00 83 1016.1
20260906035707 12 289 20.9 32.2 0.00 0.03 0.00 83 1015.9
20260906033706 12 278 14.5 25.7 0.00 0.03 0.00 83 1015.7
20260906031707 13 286 17.7 29.0 0.00 0.03 0.00 82 1015.5
20260906031207 13 295 22.5 29.0 0.00 0.03 0.00 82 1015.5
20260906025709 13 290 22.5 32.2 0.00 0.03 0.00 82 1015.2
20260906022705 13 285 20.9 38.6 0.00 0.03 0.00 81 1014.7
20260906021707 13 293 20.9 38.6 0.00 0.03 0.00 80 1014.7
20260906021206 13 281 25.7 35.4 0.00 0.03 0.00 80 1014.7
20260906020206 13 290 27.4 38.6 0.00 0.03 0.00 80 1014.7
20260906015207 13 296 25.7 33.8 0.00 0.03 0.00 79 1014.6
20260906014708 13 280 24.1 38.6 0.00 0.03 0.00 79 1014.6
20260906014208 13 281 32.2 40.2 0.00 0.03 0.00 79 1014.6
20260906013706 13 282 20.9 38.6 0.00 0.03 0.00 79 1014.6
20260906012707 13 290 27.4 45.1 0.00 0.03 0.00 79 1014.5
20260906012207 13 288 22.5 37.0 0.00 0.03 0.00 79 1014.3
20260906010705 13 278 25.7 48.3 0.00 0.03 0.00 79 1014.0
20260906005206 13 288 33.8 45.1 0.00 0.03 0.00 79 1014.0
20260906004207 13 293 27.4 40.2 0.00 0.03 0.00 79 1013.9
20260906003707 13 283 37.0 48.3 0.00 0.03 0.00 79 1013.9
20260906003205 13 290 33.8 57.9 0.00 0.05 0.00 79 1013.9
20260906002705 13 290 33.8 49.9 0.00 0.05 0.00 79 1013.8
20260906001707 13 285 29.0 46.7 0.00 0.05 0.00 79 1013.5
20260906001206 13 286 33.8 46.7 0.00 0.05 0.00 79 1013.5
20260905235707 13 282 24.1 48.3 0.00 0.13 0.00 79 1013.4
20260905235208 13 296 25.7 40.2 0.00 0.15 0.00 79 1013.1
20260905234208 13 281 33.8 46.7 0.00 0.15 0.00 80 1013.1
20260905233707 13 294 25.7 41.8 0.00 0.15 0.00 80 1013.1
20260905232707 13 284 29.0 38.6 0.00 0.15 0.00 80 1013.1
20260905232205 13 286 29.0 49.9 0.00 0.15 0.00 80 1012.7
20260905231708 13 286 30.6 41.8 0.00 0.15 0.00 80 1012.7
20260905231207 13 292 29.0 41.8 0.00 0.15 0.00 80 1012.7
20260905225206 13 290 32.2 46.7 0.00 0.15 0.00 79 1012.4
20260905224206 13 280 24.1 45.1 0.00 0.15 0.00 79 1012.3
20260905223705 13 289 32.2 37.0 0.00 0.15 0.00 79 1012.2
20260905223205 13 285 27.4 48.3 0.00 0.15 0.00 78 1012.1
20260905222705 13 275 30.6 48.3 0.00 0.15 0.00 78 1012.0
20260905221706 13 280 29.0 40.2 0.00 0.15 0.00 77 1012.1
20260905220206 13 281 33.8 41.8 0.00 0.15 0.00 77 1011.7
20260905214707 14 277 32.2 45.1 0.00 0.15 0.15 77 1011.6
20260905214207 14 282 35.4 48.3 0.00 0.15 0.15 77 1011.6
20260905202205 14 278 33.8 53.1 0.00 0.15 0.15 77 1010.8
20260905195206 14 284 29.0 48.3 0.00 0.15 0.15 76 1010.6
20260905194206 14 273 29.0 49.9 0.00 0.15 0.15 75 1010.5
20260905193205 14 288 32.2 41.8 0.00 0.15 0.15 75 1010.4
20260905192705 14 285 29.0 57.9 0.00 0.15 0.15 75 1010.4
20260905191705 14 286 33.8 51.5 0.00 0.15 0.15 75 1010.2
20260905191206 14 293 32.2 51.5 0.00 0.15 0.15 76 1010.2
20260905190706 14 276 22.5 45.1 0.00 0.15 0.15 77 1010.2
20260905184206 14 269 16.1 35.4 0.00 0.15 0.15 77 1009.8
20260905183207 14 258 17.7 32.2 0.00 0.15 0.15 76 1009.8
20260905182705 14 280 19.3 37.0 0.00 0.15 0.15 76 1009.7